Kivalina, AK

6:12 PM AKDT on August 23, 2017 (GMT -0800)
Kivalina

Weather History for PAVL - February, 2013

Change the Weather History Date:

Saturday, February 9, 2013

  Actual Average (PAWN) Record (PAWN)
Temperature  
Mean Temperature -11 °F -  
Max Temperature 7 °F 6 °F 35 °F (2012)
Min Temperature -29 °F -2 °F -52 °F (1999)
Degree Days  
Heating Degree Days 76    
Moisture  
Dew Point -10 °F    
Average Humidity 78    
Maximum Humidity 85    
Minimum Humidity 70    
Precipitation  
Precipitation 0.00 in - - ()
Sea Level Pressure  
Sea Level Pressure 29.56 in    
Wind  
Wind Speed 8 mph (NNE)    
Max Wind Speed 20 mph    
Max Gust Speed -    
Visibility 6 miles    
Events Snow    
Averages and records for this station are not official NWS values.
T = Trace of Precipitation, MM = Missing Value Source: NWS Daily Summary

Daily Weather History Graph

Daily Weather History Graph

Search for Another Location

Airport or City:

Trip Planner

Search our weather history database for the weather conditions in past years. The results will help you decide how hot, cold, wet, or windy it might be!

Date:

Astronomy

Feb. 09, 2013 Rise Set
Actual Time 10:36 AM AKST 5:49 PM AKST
Civil Twilight 9:32 AM AKST 6:53 PM AKST
Nautical Twilight 8:26 AM AKST 7:59 PM AKST
Astronomical Twilight 7:23 AM AKST 9:03 PM AKST
Moon 9:43 AM AKST (2/9) 6:10 PM AKST (2/9)
Length of Visible Light 9h 20m
Length of Day
7h 12m
Waning Crescent, 0% of the Moon is Illuminated
Feb 9
Waning Crescent
Feb 9
New
Feb 17
First Quarter
Feb 25
Full
Mar 4
Last Quarter

Hourly Weather History & Observations

Time (AKST) Temp. Windchill Dew Point Humidity Pressure Visibility Wind Dir Wind Speed Gust Speed Precip Events Conditions
12:53 AM -29.0 °F -41.0 °F -34.1 °F 77% 29.91 in 10.0 mi ENE 3.5 mph - N/A   Scattered Clouds
1:53 AM -27.9 °F -39.8 °F -34.1 °F 73% 29.90 in 10.0 mi NNE 3.5 mph - N/A   Overcast
3:53 AM -20.0 °F -35.3 °F -26.0 °F 74% 29.86 in 6.0 mi NE 5.8 mph - 0.00 in Snow Light Snow
4:49 AM -18.4 °F -35.1 °F -23.8 °F 76% 29.83 in 2.0 mi NNE 6.9 mph - 0.00 in Snow Light Snow
4:53 AM -18.0 °F -33.0 °F -23.1 °F 78% 29.83 in 2.5 mi NNE 5.8 mph - 0.00 in Snow Light Snow
5:00 AM -16.6 °F -31.3 °F -23.8 °F 70% 29.83 in 4.0 mi NNE 5.8 mph - 0.00 in Snow Light Snow
5:53 AM -15.0 °F -29.3 °F -20.9 °F 75% 29.80 in 5.0 mi North 5.8 mph - 0.00 in Snow Light Snow
6:53 AM -13.0 °F -25.1 °F -18.0 °F 78% 29.76 in 3.0 mi NNW 4.6 mph - 0.00 in Snow Light Snow
7:30 AM -11.2 °F -20.6 °F -16.6 °F 77% 29.74 in 2.0 mi North 3.5 mph - 0.00 in Snow Light Snow
7:42 AM -11.2 °F -23.0 °F -16.6 °F 77% 29.73 in 4.0 mi North 4.6 mph - 0.00 in Snow Light Snow
7:53 AM -9.9 °F -24.9 °F -16.1 °F 74% 29.72 in 4.0 mi North 6.9 mph - 0.00 in Snow Light Snow
8:53 AM -8.0 °F -25.0 °F -14.1 °F 75% 29.69 in 2.5 mi NNE 9.2 mph - 0.00 in Snow Light Snow
9:15 AM -7.6 °F -24.6 °F -11.2 °F 84% 29.67 in 3.0 mi NNE 9.2 mph - 0.00 in Snow Light Snow
9:53 AM -6.0 °F -20.1 °F -11.0 °F 79% 29.66 in 4.0 mi NNE 6.9 mph - 0.00 in Snow Light Snow
9:59 AM -5.8 °F -22.4 °F -9.4 °F 84% 29.65 in 2.5 mi NNE 9.2 mph - 0.00 in Snow Light Snow
10:28 AM -5.8 °F -24.4 °F -9.4 °F 84% 29.62 in 3.0 mi NE 11.5 mph - 0.00 in Snow Light Snow
10:38 AM -5.8 °F -25.2 °F -9.4 °F 84% 29.62 in 7.0 mi NE 12.7 mph - 0.00 in Snow Light Snow
10:53 AM -6.0 °F -23.6 °F -9.9 °F 83% 29.62 in 8.0 mi NE 10.4 mph - 0.00 in   Overcast
11:53 AM -2.9 °F -20.8 °F -8.0 °F 79% 29.58 in 6.0 mi NNE 11.5 mph - 0.00 in   Haze
12:53 PM -0.9 °F -22.4 °F -6.0 °F 79% 29.53 in 8.0 mi NNE 18.4 mph - N/A   Overcast
1:50 PM -0.4 °F -20.5 °F -5.8 °F 78% 29.50 in 2.5 mi NNE 16.1 mph - 0.00 in Snow Light Snow
1:53 PM -0.0 °F -20.1 °F -5.1 °F 79% 29.50 in 2.0 mi NNE 16.1 mph - 0.00 in Snow Light Snow
2:00 PM -0.4 °F -19.2 °F -5.8 °F 78% 29.49 in 1.5 mi NNE 13.8 mph - 0.00 in Snow Light Snow
2:21 PM 1.4 °F -14.5 °F -2.2 °F 85% 29.48 in 2.0 mi NNE 10.4 mph - 0.00 in Snow Light Snow
2:29 PM 1.4 °F -13.5 °F -2.2 °F 85% 29.48 in 3.0 mi North 9.2 mph - 0.00 in Snow Light Snow
2:34 PM 1.4 °F -14.5 °F -2.2 °F 85% 29.48 in 2.0 mi North 10.4 mph - 0.00 in Snow Light Snow
2:44 PM 1.4 °F -14.5 °F -2.2 °F 85% 29.47 in 3.0 mi North 10.4 mph - 0.00 in Snow Light Snow
2:53 PM 1.9 °F -13.8 °F -2.9 °F 80% 29.47 in 3.0 mi North 10.4 mph - 0.00 in Snow Light Snow
3:03 PM 1.4 °F -13.5 °F -2.2 °F 85% 29.46 in 8.0 mi North 9.2 mph - 0.00 in   Overcast
3:53 PM 1.0 °F -14.9 °F -4.0 °F 79% 29.43 in 10.0 mi NNE 10.4 mph - 0.00 in   Overcast
4:53 PM 1.9 °F -14.7 °F -4.0 °F 76% 29.39 in 10.0 mi North 11.5 mph - N/A   Overcast
5:53 PM 3.0 °F -9.3 °F -2.9 °F 76% 29.33 in 10.0 mi NNE 6.9 mph - N/A   Overcast
6:53 PM 3.0 °F -17.8 °F -2.9 °F 76% 29.29 in 7.0 mi NNE 19.6 mph - N/A   Mostly Cloudy
7:53 PM 5.0 °F -10.8 °F -2.0 °F 73% 29.26 in 10.0 mi NNE 11.5 mph - N/A   Overcast
8:53 PM 6.1 °F -10.9 °F -0.9 °F 73% 29.23 in 10.0 mi NNE 13.8 mph - N/A   Overcast
9:53 PM 6.1 °F -10.9 °F -0.0 °F 76% 29.20 in 10.0 mi North 13.8 mph - N/A   Overcast
10:53 PM 7.0 °F -11.6 °F -0.0 °F 73% 29.18 in 10.0 mi NE 17.3 mph - N/A   Overcast
11:53 PM 7.0 °F -8.3 °F 1.0 °F 77% 29.16 in 10.0 mi NNE 11.5 mph - N/A   Overcast